Time,TemperatureF,DewpointF,PressureIn,WindDirection,WindDirectionDegrees,WindSpeedMPH,WindSpeedGustMPH,Humidity,HourlyPrecipIn,Conditions,Clouds,dailyrainin,SoftwareType,DateUTC
2013-12-16 00:00:00,10.5,6.9,30.27,NNW,334,0.0,0.0,85,0.00,,,0.00,Wunderground v.1.15,2013-12-16 06:00:00,
2013-12-16 00:05:00,10.5,7.1,30.27,NNW,334,0.0,0.0,86,0.00,,,0.00,Wunderground v.1.15,2013-12-16 06:05:00,
2013-12-16 00:15:00,10.4,7.0,30.26,NNW,334,0.0,0.0,86,0.00,,,0.00,Wunderground v.1.15,2013-12-16 06:15:00,
2013-12-16 00:20:00,10.4,7.0,30.26,NNW,334,0.0,0.0,86,0.00,,,0.00,Wunderground v.1.15,2013-12-16 06:20:00,
2013-12-16 00:30:00,10.4,7.0,30.25,NNW,334,0.0,0.0,86,0.00,,,0.00,Wunderground v.1.15,2013-12-16 06:30:00,
2013-12-16 00:35:00,10.4,7.0,30.25,NNW,334,0.0,1.0,86,0.00,,,0.00,Wunderground v.1.15,2013-12-16 06:35:00,
2013-12-16 00:40:00,10.4,7.0,30.25,NNW,334,0.0,2.0,86,0.00,,,0.00,Wunderground v.1.15,2013-12-16 06:40:00,
2013-12-16 00:45:00,10.4,7.0,30.25,NNW,334,0.0,2.0,86,0.00,,,0.00,Wunderground v.1.15,2013-12-16 06:45:00,
2013-12-16 00:55:00,10.5,7.1,30.25,NNW,334,0.0,1.0,86,0.00,,,0.00,Wunderground v.1.15,2013-12-16 06:55:00,
2013-12-16 01:00:00,10.4,7.0,30.25,NNW,334,0.0,0.0,86,0.00,,,0.00,Wunderground v.1.15,2013-12-16 07:00:00,
2013-12-16 01:05:00,10.5,7.1,30.25,NNW,334,0.0,0.0,86,0.00,,,0.00,Wunderground v.1.15,2013-12-16 07:05:00,
2013-12-16 01:15:00,10.5,7.1,30.25,NNW,334,0.0,0.0,86,0.00,,,0.00,Wunderground v.1.15,2013-12-16 07:15:00,
2013-12-16 01:20:00,10.4,7.0,30.25,NNW,334,0.0,0.0,86,0.00,,,0.00,Wunderground v.1.15,2013-12-16 07:20:00,
2013-12-16 01:25:00,10.4,7.0,30.25,NNW,335,0.0,0.0,86,0.00,,,0.00,Wunderground v.1.15,2013-12-16 07:25:00,
2013-12-16 01:35:00,10.4,7.0,30.25,NNW,334,0.0,0.0,86,0.00,,,0.00,Wunderground v.1.15,2013-12-16 07:35:00,
2013-12-16 01:40:00,10.3,6.7,30.25,NNW,334,0.0,2.0,85,0.00,,,0.00,Wunderground v.1.15,2013-12-16 07:40:00,
2013-12-16 01:45:00,10.1,6.5,30.25,NNW,335,0.0,2.0,85,0.00,,,0.00,Wunderground v.1.15,2013-12-16 07:45:00,
2013-12-16 01:55:00,9.9,6.3,30.25,NNW,335,0.0,0.0,85,0.00,,,0.00,Wunderground v.1.15,2013-12-16 07:55:00,
2013-12-16 02:00:00,9.9,6.3,30.25,NNW,334,0.0,1.0,85,0.00,,,0.00,Wunderground v.1.15,2013-12-16 08:00:00,
2013-12-16 02:05:00,9.8,6.2,30.26,NNW,334,1.0,1.0,85,0.00,,,0.00,Wunderground v.1.15,2013-12-16 08:05:00,
2013-12-16 02:15:00,9.4,5.8,30.27,NNW,335,0.0,0.0,85,0.00,,,0.00,Wunderground v.1.15,2013-12-16 08:15:00,
2013-12-16 02:20:00,9.2,5.6,30.27,NNW,335,0.0,0.0,85,0.00,,,0.00,Wunderground v.1.15,2013-12-16 08:20:00,
2013-12-16 02:25:00,9.0,5.4,30.26,NNW,335,0.0,0.0,85,0.00,,,0.00,Wunderground v.1.15,2013-12-16 08:25:00,
2013-12-16 02:35:00,8.9,5.3,30.26,NNW,335,0.0,0.0,85,0.00,,,0.00,Wunderground v.1.15,2013-12-16 08:35:00,
2013-12-16 02:40:00,8.7,5.1,30.26,NNW,335,0.0,0.0,85,0.00,,,0.00,Wunderground v.1.15,2013-12-16 08:40:00,
2013-12-16 02:45:00,8.6,5.0,30.26,NNW,335,0.0,0.0,85,0.00,,,0.00,Wunderground v.1.15,2013-12-16 08:45:00,
2013-12-16 02:50:00,8.5,4.9,30.26,NNW,334,0.0,0.0,85,0.00,,,0.00,Wunderground v.1.15,2013-12-16 08:50:00,
2013-12-16 03:00:00,8.5,4.9,30.26,NNW,335,0.0,0.0,85,0.00,,,0.00,Wunderground v.1.15,2013-12-16 09:00:00,
2013-12-16 03:05:00,8.5,5.2,30.26,NNW,335,0.0,0.0,86,0.00,,,0.00,Wunderground v.1.15,2013-12-16 09:05:00,
2013-12-16 03:15:00,8.6,5.3,30.26,NNW,335,0.0,0.0,86,0.00,,,0.00,Wunderground v.1.15,2013-12-16 09:15:00,
2013-12-16 03:20:00,8.7,5.4,30.26,NNW,334,0.0,1.0,86,0.00,,,0.00,Wunderground v.1.15,2013-12-16 09:20:00,
2013-12-16 03:25:00,8.8,5.2,30.26,NNW,335,0.0,1.0,85,0.00,,,0.00,Wunderground v.1.15,2013-12-16 09:25:00,
2013-12-16 03:30:00,8.9,5.3,30.26,NNW,335,0.0,0.0,85,0.00,,,0.00,Wunderground v.1.15,2013-12-16 09:30:00,
2013-12-16 03:40:00,9.0,5.4,30.26,NNW,335,0.0,0.0,85,0.00,,,0.00,Wunderground v.1.15,2013-12-16 09:40:00,
2013-12-16 03:45:00,9.1,5.2,30.26,NNW,335,0.0,0.0,84,0.00,,,0.00,Wunderground v.1.15,2013-12-16 09:45:00,
2013-12-16 03:50:00,9.1,5.0,30.26,NNW,333,0.0,0.0,83,0.00,,,0.00,Wunderground v.1.15,2013-12-16 09:50:00,
2013-12-16 04:00:00,9.1,4.7,30.26,NNW,333,0.0,0.0,82,0.00,,,0.00,Wunderground v.1.15,2013-12-16 10:00:00,
2013-12-16 04:05:00,9.0,4.1,30.26,ENE,78,0.0,0.0,80,0.00,,,0.00,Wunderground v.1.15,2013-12-16 10:05:00,
2013-12-16 04:15:00,8.8,3.6,30.26,East,82,0.0,0.0,79,0.00,,,0.00,Wunderground v.1.15,2013-12-16 10:15:00,
2013-12-16 04:20:00,8.7,3.2,30.26,East,82,0.0,0.0,78,0.00,,,0.00,Wunderground v.1.15,2013-12-16 10:20:00,
2013-12-16 04:25:00,8.7,3.2,30.26,East,82,0.0,0.0,78,0.00,,,0.00,Wunderground v.1.15,2013-12-16 10:25:00,
2013-12-16 04:35:00,8.6,2.9,30.26,East,82,0.0,0.0,77,0.00,,,0.00,Wunderground v.1.15,2013-12-16 10:35:00,
2013-12-16 04:40:00,8.6,2.9,30.25,East,84,0.0,0.0,77,0.00,,,0.00,Wunderground v.1.15,2013-12-16 10:40:00,
2013-12-16 04:45:00,8.7,3.0,30.25,East,85,0.0,0.0,77,0.00,,,0.00,Wunderground v.1.15,2013-12-16 10:45:00,
2013-12-16 04:50:00,8.7,3.0,30.25,East,85,0.0,0.0,77,0.00,,,0.00,Wunderground v.1.15,2013-12-16 10:50:00,
2013-12-16 05:00:00,8.6,2.9,30.25,East,87,0.0,0.0,77,0.00,,,0.00,Wunderground v.1.15,2013-12-16 11:00:00,
2013-12-16 05:05:00,8.5,2.8,30.25,East,90,0.0,0.0,77,0.00,,,0.00,Wunderground v.1.15,2013-12-16 11:05:00,
2013-12-16 05:15:00,8.5,2.8,30.24,East,90,0.0,1.0,77,0.00,,,0.00,Wunderground v.1.15,2013-12-16 11:15:00,
2013-12-16 05:20:00,8.5,3.0,30.24,East,90,0.0,0.0,78,0.00,,,0.00,Wunderground v.1.15,2013-12-16 11:20:00,
2013-12-16 05:30:00,8.3,2.6,30.25,ESE,110,0.0,0.0,77,0.00,,,0.00,Wunderground v.1.15,2013-12-16 11:30:00,
2013-12-16 05:35:00,8.3,2.6,30.25,ESE,111,0.0,0.0,77,0.00,,,0.00,Wunderground v.1.15,2013-12-16 11:35:00,
2013-12-16 05:40:00,8.3,2.6,30.25,ESE,110,0.0,0.0,77,0.00,,,0.00,Wunderground v.1.15,2013-12-16 11:40:00,
2013-12-16 05:45:00,8.3,2.6,30.25,ESE,111,0.0,0.0,77,0.00,,,0.00,Wunderground v.1.15,2013-12-16 11:45:00,
2013-12-16 05:50:00,8.3,2.6,30.25,ESE,111,0.0,0.0,77,0.00,,,0.00,Wunderground v.1.15,2013-12-16 11:50:00,
2013-12-16 05:55:00,8.2,2.5,30.25,SE,126,0.0,0.0,77,0.00,,,0.00,Wunderground v.1.15,2013-12-16 11:55:00,
2013-12-16 06:00:00,8.2,2.5,30.25,SE,126,0.0,0.0,77,0.00,,,0.00,Wunderground v.1.15,2013-12-16 12:00:00,
2013-12-16 06:05:00,8.1,2.4,30.25,SE,126,0.0,0.0,77,0.00,,,0.00,Wunderground v.1.15,2013-12-16 12:05:00,
2013-12-16 06:15:00,8.1,2.1,30.26,SE,126,0.0,0.0,76,0.00,,,0.00,Wunderground v.1.15,2013-12-16 12:15:00,
2013-12-16 06:20:00,8.1,2.1,30.26,SE,126,0.0,0.0,76,0.00,,,0.00,Wunderground v.1.15,2013-12-16 12:20:00,
2013-12-16 06:25:00,8.1,2.1,30.26,SE,126,0.0,0.0,76,0.00,,,0.00,Wunderground v.1.15,2013-12-16 12:25:00,
2013-12-16 06:30:00,8.1,2.1,30.27,SE,126,0.0,0.0,76,0.00,,,0.00,Wunderground v.1.15,2013-12-16 12:30:00,
2013-12-16 06:35:00,8.1,2.1,30.27,SE,125,0.0,0.0,76,0.00,,,0.00,Wunderground v.1.15,2013-12-16 12:35:00,
2013-12-16 06:45:00,8.1,1.8,30.27,SE,125,0.0,0.0,75,0.00,,,0.00,Wunderground v.1.15,2013-12-16 12:45:00,
2013-12-16 06:50:00,8.1,1.8,30.27,SE,125,0.0,0.0,75,0.00,,,0.00,Wunderground v.1.15,2013-12-16 12:50:00,
2013-12-16 06:55:00,8.1,1.5,30.26,ESE,123,0.0,0.0,74,0.00,,,0.00,Wunderground v.1.15,2013-12-16 12:55:00,
2013-12-16 07:00:00,8.1,1.8,30.26,ESE,123,0.0,0.0,75,0.00,,,0.00,Wunderground v.1.15,2013-12-16 13:00:00,
2013-12-16 07:05:00,8.1,1.8,30.26,ESE,123,0.0,0.0,75,0.00,,,0.00,Wunderground v.1.15,2013-12-16 13:05:00,
2013-12-16 07:15:00,8.1,1.8,30.25,ESE,105,1.0,1.0,75,0.00,,,0.00,Wunderground v.1.15,2013-12-16 13:15:00,
2013-12-16 07:25:00,8.1,1.5,30.25,SE,129,1.0,2.0,74,0.00,,,0.00,Wunderground v.1.15,2013-12-16 13:25:00,
2013-12-16 07:30:00,8.1,1.5,30.25,East,99,1.0,1.0,74,0.00,,,0.00,Wunderground v.1.15,2013-12-16 13:30:00,
2013-12-16 07:40:00,8.2,1.6,30.26,East,99,0.0,0.0,74,0.00,,,0.00,Wunderground v.1.15,2013-12-16 13:40:00,
2013-12-16 07:45:00,8.3,1.7,30.26,East,99,0.0,0.0,74,0.00,,,0.00,Wunderground v.1.15,2013-12-16 13:45:00,
2013-12-16 07:55:00,8.4,1.8,30.26,ESE,114,1.0,1.0,74,0.00,,,0.00,Wunderground v.1.15,2013-12-16 13:55:00,
2013-12-16 08:00:00,8.5,1.9,30.27,ESE,115,1.0,1.0,74,0.00,,,0.00,Wunderground v.1.15,2013-12-16 14:00:00,
2013-12-16 08:10:00,8.6,2.3,30.26,ESE,107,1.0,4.0,75,0.00,,,0.00,Wunderground v.1.15,2013-12-16 14:10:00,
2013-12-16 08:15:00,8.6,2.3,30.26,SE,138,1.0,4.0,75,0.00,,,0.00,Wunderground v.1.15,2013-12-16 14:15:00,
2013-12-16 08:20:00,8.6,2.3,30.27,SE,138,2.0,2.0,75,0.00,,,0.00,Wunderground v.1.15,2013-12-16 14:20:00,
2013-12-16 08:25:00,8.7,2.4,30.26,SE,132,2.0,2.0,75,0.00,,,0.00,Wunderground v.1.15,2013-12-16 14:25:00,
2013-12-16 08:35:00,8.7,2.1,30.26,SE,140,2.0,2.0,74,0.00,,,0.00,Wunderground v.1.15,2013-12-16 14:35:00,
2013-12-16 08:40:00,8.7,2.4,30.26,SSE,153,3.0,5.0,75,0.00,,,0.00,Wunderground v.1.15,2013-12-16 14:40:00,
2013-12-16 08:45:00,8.6,2.3,30.27,SSE,153,3.0,5.0,75,0.00,,,0.00,Wunderground v.1.15,2013-12-16 14:45:00,
2013-12-16 08:55:00,8.9,2.6,30.26,SSE,148,1.0,4.0,75,0.00,,,0.00,Wunderground v.1.15,2013-12-16 14:55:00,
2013-12-16 09:00:00,8.9,2.6,30.27,SSE,155,2.0,2.0,75,0.00,,,0.00,Wunderground v.1.15,2013-12-16 15:00:00,
2013-12-16 09:05:00,9.1,3.1,30.27,SSE,150,2.0,4.0,76,0.00,,,0.00,Wunderground v.1.15,2013-12-16 15:05:00,
2013-12-16 09:15:00,9.5,3.7,30.27,SSE,147,1.0,1.0,77,0.00,,,0.00,Wunderground v.1.15,2013-12-16 15:15:00,
2013-12-16 09:20:00,9.9,4.1,30.27,SSE,147,0.0,2.0,77,0.00,,,0.00,Wunderground v.1.15,2013-12-16 15:20:00,
2013-12-16 09:25:00,10.0,3.9,30.27,SE,140,0.0,2.0,76,0.00,,,0.00,Wunderground v.1.15,2013-12-16 15:25:00,
2013-12-16 09:30:00,10.2,4.1,30.27,SE,142,0.0,4.0,76,0.00,,,0.00,Wunderground v.1.15,2013-12-16 15:30:00,
2013-12-16 09:40:00,10.4,4.3,30.27,SE,138,1.0,1.0,76,0.00,,,0.00,Wunderground v.1.15,2013-12-16 15:40:00,
2013-12-16 09:45:00,10.6,4.5,30.27,ESE,108,1.0,2.0,76,0.00,,,0.00,Wunderground v.1.15,2013-12-16 15:45:00,
2013-12-16 09:50:00,10.8,4.7,30.27,ESE,103,1.0,2.0,76,0.00,,,0.00,Wunderground v.1.15,2013-12-16 15:50:00,
2013-12-16 10:00:00,11.1,4.7,30.28,SE,138,1.0,1.0,75,0.00,,,0.00,Wunderground v.1.15,2013-12-16 16:00:00,
2013-12-16 10:05:00,11.0,4.3,30.28,SSE,149,2.0,2.0,74,0.00,,,0.00,Wunderground v.1.15,2013-12-16 16:05:00,
2013-12-16 10:15:00,10.7,4.0,30.28,SSE,150,2.0,2.0,74,0.00,,,0.00,Wunderground v.1.15,2013-12-16 16:15:00,
2013-12-16 10:20:00,10.5,4.1,30.28,SSE,150,1.0,1.0,75,0.00,,,0.00,Wunderground v.1.15,2013-12-16 16:20:00,
2013-12-16 10:25:00,10.7,4.3,30.28,ESE,113,1.0,1.0,75,0.00,,,0.00,Wunderground v.1.15,2013-12-16 16:25:00,
2013-12-16 10:30:00,10.9,4.8,30.27,SE,134,1.0,1.0,76,0.00,,,0.00,Wunderground v.1.15,2013-12-16 16:30:00,
2013-12-16 10:40:00,11.1,5.0,30.27,ESE,103,0.0,0.0,76,0.00,,,0.00,Wunderground v.1.15,2013-12-16 16:40:00,
2013-12-16 10:45:00,11.0,4.9,30.27,SE,125,1.0,1.0,76,0.00,,,0.00,Wunderground v.1.15,2013-12-16 16:45:00,
2013-12-16 10:50:00,11.0,4.9,30.26,SE,146,1.0,1.0,76,0.00,,,0.00,Wunderground v.1.15,2013-12-16 16:50:00,
2013-12-16 10:55:00,10.9,4.5,30.26,SE,146,1.0,1.0,75,0.00,,,0.00,Wunderground v.1.15,2013-12-16 16:55:00,
2013-12-16 11:05:00,10.9,4.2,30.24,SE,140,1.0,4.0,74,0.00,,,0.00,Wunderground v.1.15,2013-12-16 17:05:00,
2013-12-16 11:15:00,10.7,3.7,30.24,SE,142,3.0,3.0,73,0.00,,,0.00,Wunderground v.1.15,2013-12-16 17:15:00,
2013-12-16 11:20:00,10.5,3.3,30.23,SSE,149,3.0,4.0,72,0.00,,,0.00,Wunderground v.1.15,2013-12-16 17:20:00,
2013-12-16 11:25:00,10.5,3.3,30.22,SE,146,4.0,4.0,72,0.00,,,0.00,Wunderground v.1.15,2013-12-16 17:25:00,
2013-12-16 11:35:00,10.9,3.6,30.22,SSE,159,2.0,4.0,72,0.00,,,0.00,Wunderground v.1.15,2013-12-16 17:35:00,
2013-12-16 11:40:00,10.7,3.4,30.22,South,173,4.0,5.0,72,0.00,,,0.00,Wunderground v.1.15,2013-12-16 17:40:00,
2013-12-16 11:45:00,10.7,3.7,30.22,SE,146,5.0,5.0,73,0.00,,,0.00,Wunderground v.1.15,2013-12-16 17:45:00,
2013-12-16 11:50:00,10.7,3.7,30.21,SSE,152,4.0,4.0,73,0.00,,,0.00,Wunderground v.1.15,2013-12-16 17:50:00,
2013-12-16 11:55:00,10.9,4.2,30.21,SSE,165,4.0,4.0,74,0.00,,,0.00,Wunderground v.1.15,2013-12-16 17:55:00,
2013-12-16 12:05:00,11.5,4.5,30.20,SE,145,4.0,5.0,73,0.00,,,0.00,Wunderground v.1.15,2013-12-16 18:05:00,
2013-12-16 12:15:00,11.8,4.5,30.20,SSE,154,4.0,5.0,72,0.00,,,0.00,Wunderground v.1.15,2013-12-16 18:15:00,
2013-12-16 12:20:00,11.9,4.6,30.20,SSE,153,4.0,4.0,72,0.00,,,0.00,Wunderground v.1.15,2013-12-16 18:20:00,
2013-12-16 12:25:00,11.9,4.6,30.20,SSE,156,4.0,5.0,72,0.00,,,0.00,Wunderground v.1.15,2013-12-16 18:25:00,
2013-12-16 12:35:00,11.8,4.2,30.19,SSE,149,3.0,4.0,71,0.00,,,0.00,Wunderground v.1.15,2013-12-16 18:35:00,
2013-12-16 12:40:00,11.8,4.5,30.19,SSE,167,2.0,2.0,72,0.00,,,0.00,Wunderground v.1.15,2013-12-16 18:40:00,
2013-12-16 12:45:00,11.7,5.0,30.19,SSE,148,3.0,6.0,74,0.00,,,0.00,Wunderground v.1.15,2013-12-16 18:45:00,
2013-12-16 12:50:00,11.5,5.1,30.18,SSE,167,4.0,4.0,75,0.00,,,0.00,Wunderground v.1.15,2013-12-16 18:50:00,
2013-12-16 12:55:00,11.4,5.6,30.18,SSE,151,4.0,4.0,77,0.00,,,0.00,Wunderground v.1.15,2013-12-16 18:55:00,
2013-12-16 13:05:00,11.7,6.7,30.18,SSE,153,1.0,2.0,80,0.00,,,0.00,Wunderground v.1.15,2013-12-16 19:05:00,
2013-12-16 13:15:00,11.9,7.5,30.18,SSE,167,3.0,5.0,82,0.00,,,0.00,Wunderground v.1.15,2013-12-16 19:15:00,
2013-12-16 13:20:00,11.9,7.7,30.18,SSE,154,3.0,3.0,83,0.00,,,0.00,Wunderground v.1.15,2013-12-16 19:20:00,
2013-12-16 13:25:00,12.1,8.2,30.17,SSE,155,1.0,3.0,84,0.00,,,0.00,Wunderground v.1.15,2013-12-16 19:25:00,
2013-12-16 13:30:00,12.1,8.2,30.17,SSE,165,2.0,5.0,84,0.00,,,0.00,Wunderground v.1.15,2013-12-16 19:30:00,
2013-12-16 13:35:00,12.2,8.6,30.17,SSE,165,3.0,5.0,85,0.00,,,0.00,Wunderground v.1.15,2013-12-16 19:35:00,
2013-12-16 13:45:00,12.6,8.9,30.16,SSE,163,1.0,1.0,85,0.00,,,0.00,Wunderground v.1.15,2013-12-16 19:45:00,
2013-12-16 13:50:00,12.7,9.0,30.16,SSE,161,2.0,4.0,85,0.00,,,0.00,Wunderground v.1.15,2013-12-16 19:50:00,
2013-12-16 13:55:00,12.6,8.9,30.17,SSE,162,2.0,4.0,85,0.00,,,0.00,Wunderground v.1.15,2013-12-16 19:55:00,
2013-12-16 14:05:00,12.8,9.4,30.16,SSE,163,3.0,4.0,86,0.00,,,0.00,Wunderground v.1.15,2013-12-16 20:05:00,
2013-12-16 14:15:00,12.9,9.5,30.15,SSE,158,3.0,6.0,86,0.00,,,0.00,Wunderground v.1.15,2013-12-16 20:15:00,
2013-12-16 14:20:00,13.1,9.7,30.16,SSE,158,2.0,2.0,86,0.00,,,0.00,Wunderground v.1.15,2013-12-16 20:20:00,
2013-12-16 14:25:00,13.3,9.9,30.16,SSE,158,1.0,2.0,86,0.00,,,0.00,Wunderground v.1.15,2013-12-16 20:25:00,
2013-12-16 14:30:00,13.5,10.1,30.16,SSE,158,1.0,1.0,86,0.00,,,0.00,Wunderground v.1.15,2013-12-16 20:30:00,
2013-12-16 14:35:00,13.7,10.3,30.15,SSE,158,1.0,1.0,86,0.00,,,0.00,Wunderground v.1.15,2013-12-16 20:35:00,
2013-12-16 14:45:00,14.0,10.3,30.16,SSE,161,3.0,4.0,85,0.00,,,0.00,Wunderground v.1.15,2013-12-16 20:45:00,
2013-12-16 14:50:00,14.0,10.3,30.16,SSE,150,3.0,4.0,85,0.00,,,0.00,Wunderground v.1.15,2013-12-16 20:50:00,
2013-12-16 14:55:00,14.0,10.3,30.16,South,171,3.0,4.0,85,0.00,,,0.00,Wunderground v.1.15,2013-12-16 20:55:00,
2013-12-16 15:05:00,13.9,10.2,30.16,South,174,2.0,2.0,85,0.00,,,0.00,Wunderground v.1.15,2013-12-16 21:05:00,
2013-12-16 15:15:00,13.9,10.2,30.17,SSE,155,2.0,5.0,85,0.00,,,0.00,Wunderground v.1.15,2013-12-16 21:15:00,
2013-12-16 15:25:00,13.9,10.2,30.17,SSE,155,1.0,2.0,85,0.00,,,0.00,Wunderground v.1.15,2013-12-16 21:25:00,
2013-12-16 15:30:00,13.9,10.2,30.17,SSE,155,1.0,1.0,85,0.00,,,0.00,Wunderground v.1.15,2013-12-16 21:30:00,
2013-12-16 15:40:00,13.9,10.2,30.18,SSE,155,0.0,0.0,85,0.00,,,0.00,Wunderground v.1.15,2013-12-16 21:40:00,
2013-12-16 15:45:00,14.0,10.3,30.18,SSE,155,0.0,0.0,85,0.00,,,0.00,Wunderground v.1.15,2013-12-16 21:45:00,
2013-12-16 15:50:00,14.0,10.3,30.18,SSE,155,0.0,0.0,85,0.00,,,0.00,Wunderground v.1.15,2013-12-16 21:50:00,
2013-12-16 16:00:00,14.2,10.5,30.19,SSW,198,0.0,0.0,85,0.00,,,0.00,Wunderground v.1.15,2013-12-16 22:00:00,
2013-12-16 16:05:00,14.3,10.9,30.19,SSW,198,0.0,0.0,86,0.00,,,0.00,Wunderground v.1.15,2013-12-16 22:05:00,
2013-12-16 16:15:00,14.2,10.8,30.20,SW,217,0.0,1.0,86,0.00,,,0.00,Wunderground v.1.15,2013-12-16 22:15:00,
2013-12-16 16:20:00,14.1,10.7,30.20,SW,217,0.0,0.0,86,0.00,,,0.00,Wunderground v.1.15,2013-12-16 22:20:00,
2013-12-16 16:25:00,14.1,10.7,30.20,SW,217,0.0,0.0,86,0.00,,,0.00,Wunderground v.1.15,2013-12-16 22:25:00,
2013-12-16 16:30:00,14.0,10.6,30.20,SW,217,0.0,0.0,86,0.00,,,0.00,Wunderground v.1.15,2013-12-16 22:30:00,
2013-12-16 16:40:00,13.9,10.5,30.20,SW,217,0.0,0.0,86,0.00,,,0.00,Wunderground v.1.15,2013-12-16 22:40:00,
2013-12-16 16:45:00,14.0,10.6,30.20,SW,217,0.0,0.0,86,0.00,,,0.00,Wunderground v.1.15,2013-12-16 22:45:00,
2013-12-16 16:50:00,14.0,10.6,30.21,SW,217,0.0,0.0,86,0.00,,,0.00,Wunderground v.1.15,2013-12-16 22:50:00,
2013-12-16 16:55:00,14.0,10.6,30.21,SW,217,0.0,0.0,86,0.00,,,0.00,Wunderground v.1.15,2013-12-16 22:55:00,
2013-12-16 17:00:00,13.9,10.5,30.20,SW,218,0.0,0.0,86,0.00,,,0.00,Wunderground v.1.15,2013-12-16 23:00:00,
2013-12-16 17:05:00,13.9,10.5,30.20,SW,218,0.0,0.0,86,0.00,,,0.00,Wunderground v.1.15,2013-12-16 23:05:00,
2013-12-16 17:15:00,13.9,10.5,30.20,SW,218,0.0,0.0,86,0.00,,,0.00,Wunderground v.1.15,2013-12-16 23:15:00,
2013-12-16 17:20:00,13.9,10.5,30.20,SW,218,0.0,0.0,86,0.00,,,0.00,Wunderground v.1.15,2013-12-16 23:20:00,
2013-12-16 17:25:00,13.8,10.4,30.19,SW,218,0.0,0.0,86,0.00,,,0.00,Wunderground v.1.15,2013-12-16 23:25:00,
2013-12-16 17:30:00,13.7,10.3,30.20,SW,218,0.0,0.0,86,0.00,,,0.00,Wunderground v.1.15,2013-12-16 23:30:00,
2013-12-16 17:40:00,13.7,10.5,30.20,SW,218,0.0,0.0,87,0.00,,,0.00,Wunderground v.1.15,2013-12-16 23:40:00,
2013-12-16 17:45:00,13.6,10.5,30.19,SW,218,0.0,0.0,87,0.00,,,0.00,Wunderground v.1.15,2013-12-16 23:45:00,
2013-12-16 17:50:00,13.5,10.4,30.19,SW,218,0.0,0.0,87,0.00,,,0.00,Wunderground v.1.15,2013-12-16 23:50:00,
2013-12-16 18:00:00,13.4,10.3,30.19,SW,218,0.0,0.0,87,0.00,,,0.00,Wunderground v.1.15,2013-12-17 00:00:00,
2013-12-16 18:05:00,13.4,10.3,30.19,SW,218,0.0,0.0,87,0.00,,,0.00,Wunderground v.1.15,2013-12-17 00:05:00,
2013-12-16 18:15:00,13.4,10.3,30.19,SW,218,0.0,0.0,87,0.00,,,0.00,Wunderground v.1.15,2013-12-17 00:15:00,
2013-12-16 18:20:00,13.3,10.2,30.19,SW,218,0.0,0.0,87,0.00,,,0.00,Wunderground v.1.15,2013-12-17 00:20:00,
2013-12-16 18:25:00,13.3,10.2,30.19,SW,218,0.0,0.0,87,0.00,,,0.00,Wunderground v.1.15,2013-12-17 00:25:00,
2013-12-16 18:30:00,13.4,10.3,30.19,SW,218,0.0,0.0,87,0.00,,,0.00,Wunderground v.1.15,2013-12-17 00:30:00,
2013-12-16 18:40:00,13.3,10.2,30.19,SW,218,0.0,0.0,87,0.00,,,0.00,Wunderground v.1.15,2013-12-17 00:40:00,
2013-12-16 18:45:00,13.2,10.1,30.19,WSW,253,0.0,0.0,87,0.00,,,0.00,Wunderground v.1.15,2013-12-17 00:45:00,
2013-12-16 18:50:00,13.1,10.0,30.19,WSW,253,0.0,0.0,87,0.00,,,0.00,Wunderground v.1.15,2013-12-17 00:50:00,
2013-12-16 19:00:00,13.1,10.0,30.19,WSW,253,0.0,0.0,87,0.00,,,0.00,Wunderground v.1.15,2013-12-17 01:00:00,
2013-12-16 19:05:00,13.1,10.0,30.19,WSW,253,0.0,0.0,87,0.00,,,0.00,Wunderground v.1.15,2013-12-17 01:05:00,
2013-12-16 19:15:00,13.1,10.0,30.19,WSW,253,0.0,0.0,87,0.00,,,0.00,Wunderground v.1.15,2013-12-17 01:15:00,
2013-12-16 19:25:00,13.1,10.0,30.20,WSW,253,0.0,0.0,87,0.00,,,0.00,Wunderground v.1.15,2013-12-17 01:25:00,
2013-12-16 19:30:00,13.2,10.1,30.20,WSW,253,0.0,0.0,87,0.00,,,0.00,Wunderground v.1.15,2013-12-17 01:30:00,
2013-12-16 19:40:00,13.2,10.1,30.20,WSW,253,0.0,0.0,87,0.00,,,0.00,Wunderground v.1.15,2013-12-17 01:40:00,
2013-12-16 19:45:00,13.1,10.0,30.20,WSW,253,0.0,0.0,87,0.00,,,0.00,Wunderground v.1.15,2013-12-17 01:45:00,
2013-12-16 19:50:00,13.1,9.7,30.20,WSW,253,0.0,0.0,86,0.00,,,0.00,Wunderground v.1.15,2013-12-17 01:50:00,
2013-12-16 19:55:00,13.2,9.8,30.21,WSW,253,0.0,0.0,86,0.00,,,0.00,Wunderground v.1.15,2013-12-17 01:55:00,
2013-12-16 20:00:00,13.2,9.8,30.20,WSW,253,0.0,0.0,86,0.00,,,0.00,Wunderground v.1.15,2013-12-17 02:00:00,
2013-12-16 20:05:00,13.2,9.8,30.21,WSW,255,0.0,2.0,86,0.00,,,0.00,Wunderground v.1.15,2013-12-17 02:05:00,
2013-12-16 20:15:00,13.2,10.1,30.21,NW,313,0.0,0.0,87,0.00,,,0.00,Wunderground v.1.15,2013-12-17 02:15:00,
2013-12-16 20:20:00,13.2,9.8,30.20,NW,313,0.0,0.0,86,0.00,,,0.00,Wunderground v.1.15,2013-12-17 02:20:00,
2013-12-16 20:25:00,13.2,9.8,30.21,NW,313,0.0,0.0,86,0.00,,,0.00,Wunderground v.1.15,2013-12-17 02:25:00,
2013-12-16 20:30:00,13.2,9.8,30.21,NW,312,0.0,0.0,86,0.00,,,0.00,Wunderground v.1.15,2013-12-17 02:30:00,
2013-12-16 20:35:00,13.3,9.9,30.21,NW,312,0.0,0.0,86,0.00,,,0.00,Wunderground v.1.15,2013-12-17 02:35:00,
2013-12-16 20:45:00,13.2,9.8,30.21,NW,312,0.0,0.0,86,0.00,,,0.00,Wunderground v.1.15,2013-12-17 02:45:00,
2013-12-16 20:50:00,13.2,9.8,30.21,NW,312,0.0,0.0,86,0.00,,,0.00,Wunderground v.1.15,2013-12-17 02:50:00,
2013-12-16 20:55:00,13.2,9.8,30.21,NW,311,0.0,0.0,86,0.00,,,0.00,Wunderground v.1.15,2013-12-17 02:55:00,
2013-12-16 21:05:00,13.2,9.8,30.20,NW,312,0.0,0.0,86,0.00,,,0.00,Wunderground v.1.15,2013-12-17 03:05:00,
2013-12-16 21:15:00,13.2,9.8,30.20,NW,311,0.0,0.0,86,0.00,,,0.00,Wunderground v.1.15,2013-12-17 03:15:00,
2013-12-16 21:20:00,13.2,9.8,30.20,NW,311,0.0,0.0,86,0.00,,,0.00,Wunderground v.1.15,2013-12-17 03:20:00,
2013-12-16 21:25:00,13.1,9.7,30.21,NW,311,0.0,0.0,86,0.00,,,0.00,Wunderground v.1.15,2013-12-17 03:25:00,
2013-12-16 21:35:00,13.0,9.6,30.21,NW,311,0.0,0.0,86,0.00,,,0.00,Wunderground v.1.15,2013-12-17 03:35:00,
2013-12-16 21:40:00,13.0,9.6,30.20,NW,311,0.0,0.0,86,0.00,,,0.00,Wunderground v.1.15,2013-12-17 03:40:00,
2013-12-16 21:45:00,13.0,9.6,30.20,WNW,300,0.0,1.0,86,0.00,,,0.00,Wunderground v.1.15,2013-12-17 03:45:00,
2013-12-16 21:50:00,12.9,9.5,30.21,WNW,299,0.0,0.0,86,0.00,,,0.00,Wunderground v.1.15,2013-12-17 03:50:00,
2013-12-16 22:00:00,13.0,9.3,30.21,WNW,300,0.0,0.0,85,0.00,,,0.00,Wunderground v.1.15,2013-12-17 04:00:00,
2013-12-16 22:05:00,13.1,9.4,30.20,WNW,300,0.0,0.0,85,0.00,,,0.00,Wunderground v.1.15,2013-12-17 04:05:00,
2013-12-16 22:15:00,13.1,9.4,30.21,WNW,302,0.0,0.0,85,0.00,,,0.00,Wunderground v.1.15,2013-12-17 04:15:00,
2013-12-16 22:20:00,13.0,9.3,30.21,WNW,299,0.0,0.0,85,0.00,,,0.00,Wunderground v.1.15,2013-12-17 04:20:00,
2013-12-16 22:25:00,13.1,9.4,30.21,WNW,299,0.0,0.0,85,0.00,,,0.00,Wunderground v.1.15,2013-12-17 04:25:00,
2013-12-16 22:30:00,13.1,9.4,30.21,WNW,299,0.0,0.0,85,0.00,,,0.00,Wunderground v.1.15,2013-12-17 04:30:00,
2013-12-16 22:35:00,13.2,9.5,30.21,WNW,299,0.0,1.0,85,0.00,,,0.00,Wunderground v.1.15,2013-12-17 04:35:00,
2013-12-16 22:45:00,13.4,9.7,30.21,WNW,299,0.0,0.0,85,0.00,,,0.00,Wunderground v.1.15,2013-12-17 04:45:00,
2013-12-16 22:50:00,13.4,9.7,30.21,WNW,298,0.0,3.0,85,0.00,,,0.00,Wunderground v.1.15,2013-12-17 04:50:00,
2013-12-16 22:55:00,13.6,9.7,30.21,WNW,298,1.0,3.0,84,0.00,,,0.00,Wunderground v.1.15,2013-12-17 04:55:00,
2013-12-16 23:05:00,13.7,9.8,30.21,WNW,298,0.0,1.0,84,0.00,,,0.00,Wunderground v.1.15,2013-12-17 05:05:00,
2013-12-16 23:15:00,13.7,9.8,30.21,WNW,298,0.0,0.0,84,0.00,,,0.00,Wunderground v.1.15,2013-12-17 05:15:00,
2013-12-16 23:25:00,13.7,9.8,30.21,WNW,298,0.0,0.0,84,0.00,,,0.00,Wunderground v.1.15,2013-12-17 05:25:00,
2013-12-16 23:30:00,13.8,9.9,30.21,WSW,252,0.0,0.0,84,0.00,,,0.00,Wunderground v.1.15,2013-12-17 05:30:00,
2013-12-16 23:35:00,13.9,10.0,30.22,WSW,252,0.0,0.0,84,0.00,,,0.00,Wunderground v.1.15,2013-12-17 05:35:00,
2013-12-16 23:40:00,13.9,10.0,30.21,WSW,248,0.0,0.0,84,0.00,,,0.00,Wunderground v.1.15,2013-12-17 05:40:00,
2013-12-16 23:50:00,14.2,10.3,30.21,WSW,257,0.0,0.0,84,0.00,,,0.00,Wunderground v.1.15,2013-12-17 05:50:00,
2013-12-16 23:55:00,14.5,10.5,30.21,West,277,1.0,1.0,84,0.00,,,0.00,Wunderground v.1.15,2013-12-17 05:55:00,